EW9776 Weather Reports


Display with metric or nautical units.
time (UTC)temp
F
wind
direction
speed
MPH
gust
MPH
rain 1hr
in
rain 24hr
in
rain mn
in
humidity
%
barometer
mb
20260506200033 69 10 7.0 13.0 0.00 0.00 0.00 56 1019.5
20260506194612 69 6 6.0 11.0 0.00 0.00 0.00 56 1019.5
20260506193036 69 23 6.0 12.0 0.00 0.00 0.00 58 1019.6
20260506191531 68 2 7.0 14.0 0.00 0.00 0.00 59 1019.7
20260506190042 68 9 7.0 12.0 0.00 0.00 0.00 61 1019.8
20260506184532 68 7 7.0 17.0 0.00 0.00 0.00 59 1019.8
20260506183031 68 10 6.0 13.0 0.00 0.00 0.00 59 1019.5
20260506181535 67 347 6.0 10.0 0.00 0.00 0.00 60 1019.7
20260506180036 67 342 5.0 12.0 0.00 0.00 0.00 62 1019.8
20260506174533 66 357 6.0 10.0 0.00 0.00 0.00 64 1019.7
20260506173108 66 333 6.0 11.0 0.00 0.00 0.00 62 1019.7
20260506161536 64 241 7.0 16.0 0.00 0.00 0.00 63 1020.1
20260506160034 64 284 5.0 14.0 0.00 0.00 0.00 64 1019.8
20260506154655 63 317 2.0 7.0 0.00 0.00 0.00 66 1019.8
20260506153032 61 274 6.0 12.0 0.00 0.00 0.00 67 1019.8
20260506151611 61 243 7.0 18.0 0.00 0.00 0.00 68 1019.5
20260506150034 60 224 7.0 17.0 0.00 0.00 0.00 69 1019.6
20260506144535 59 223 7.0 18.0 0.00 0.00 0.00 72 1019.7
20260506141536 57 229 9.0 19.0 0.00 0.00 0.00 74 1019.7
20260506134537 56 225 8.0 16.0 0.00 0.00 0.00 76 1019.4
20260506133036 56 222 9.0 19.0 0.00 0.00 0.00 77 1019.4
20260506130031 54 230 5.0 12.0 0.00 0.00 0.00 80 1019.3
20260506123036 54 204 4.0 9.0 0.00 0.00 0.00 81 1018.9
20260506121536 54 201 6.0 14.0 0.00 0.00 0.00 81 1018.8
20260506120036 54 198 5.0 11.0 0.00 0.00 0.00 82 1018.7
20260506113034 53 211 5.0 9.0 0.00 0.00 0.00 87 1018.3
20260506111531 51 204 4.0 8.0 0.00 0.00 0.00 90 1018.2
20260506110035 51 214 2.0 6.0 0.00 0.00 0.00 91 1018.0
20260506104536 50 213 3.0 4.0 0.00 0.00 0.00 93 1018.0
20260506094537 49 154 1.0 3.0 0.00 0.00 0.00 94 1017.6
20260506093108 49 131 1.0 3.0 0.00 0.00 0.00 93 1017.7
20260506091648 50 135 0.0 3.0 0.00 0.00 0.00 93 1017.6
20260506090035 50 133 2.0 3.0 0.00 0.00 0.00 93 1017.5
20260506084535 50 113 0.0 3.0 0.00 0.00 0.00 93 1017.5
20260506083034 50 126 0.0 3.0 0.00 0.00 0.00 93 1017.3
20260506081535 50 144 0.0 2.0 0.00 0.00 0.00 92 1017.3
20260506080141 51 124 2.0 3.0 0.00 0.00 0.00 91 1017.1
20260506073037 53 100 2.0 4.0 0.00 0.00 0.00 88 1017.0
20260506071534 54 91 1.0 5.0 0.00 0.00 0.00 87 1016.9
20260506061536 52 172 1.0 3.0 0.00 0.00 0.00 89 1016.6
20260506044535 54 119 0.0 2.0 0.00 0.00 0.00 84 1015.8
20260506043035 55 109 0.0 4.0 0.00 0.00 0.00 83 1015.7
20260506040141 56 108 1.0 6.0 0.00 0.00 0.00 78 1015.5
20260506033109 59 100 1.0 7.0 0.00 0.00 0.00 74 1014.9
20260506031535 60 91 2.0 5.0 0.00 0.00 0.00 70 1014.8
20260506023034 65 82 2.0 6.0 0.00 0.00 0.00 63 1014.3
20260506021537 66 60 2.0 8.0 0.00 0.00 0.00 62 1014.2
20260506014532 67 59 2.0 6.0 0.00 0.00 0.00 60 1014.1
20260506013057 68 62 3.0 9.0 0.00 0.00 0.00 59 1014.0
20260506011536 69 51 3.0 7.0 0.00 0.00 0.00 59 1013.9
20260506010033 70 58 3.0 8.0 0.00 0.00 0.00 58 1014.0
20260506004537 71 56 4.0 10.0 0.00 0.00 0.00 57 1013.9
20260506003034 71 48 4.0 9.0 0.00 0.00 0.00 56 1013.8
20260506000108 72 29 5.0 9.0 0.00 0.00 0.00 57 1014.0
20260505234539 71 35 5.0 10.0 0.00 0.00 0.00 56 1014.1
20260505231534 72 29 4.0 11.0 0.00 0.00 0.00 57 1014.2
20260505224534 70 30 4.0 9.0 0.00 0.00 0.00 59 1014.4
20260505220036 70 39 5.0 11.0 0.00 0.00 0.00 59 1014.7
20260505213034 69 34 6.0 10.0 0.00 0.00 0.00 60 1014.8
20260505211536 69 38 5.0 9.0 0.00 0.00 0.00 60 1014.9
20260505210036 68 32 4.0 10.0 0.00 0.00 0.00 60 1015.0
20260505204532 68 51 5.0 11.0 0.00 0.00 0.00 61 1015.2
20260505203035 67 26 4.0 9.0 0.00 0.00 0.00 61 1015.3